Weather History for Weatherford, OK

Change the Weather History Date:

Saturday, January 5, 2013

  Actual Average (KJWG) Record (KJWG)
Temperature  
Mean Temperature 40 °F -  
Max Temperature 48 °F 46 °F 73 °F (1984)
Min Temperature 32 °F 24 °F -4 °F (1959)
Degree Days  
Heating Degree Days 25    
Moisture  
Dew Point 30 °F    
Average Humidity 75    
Maximum Humidity 87    
Minimum Humidity 50    
Precipitation  
Precipitation 0.00 in - - ()
Sea Level Pressure  
Sea Level Pressure 30.21 in    
Wind  
Wind Speed 9 mph (WSW)    
Max Wind Speed 16 mph    
Max Gust Speed 21 mph    
Visibility 10 miles    
Events      
Averages and records for this station are not official NWS values.
T = Trace of Precipitation, MM = Missing Value Source: NWS Daily Summary

Daily Weather History Graph

Daily Weather History Graph

Search for Another Location

Airport:

Trip Planner

Search our weather history database for the weather conditions in past years. The results will help you decide how hot, cold, wet, or windy it might be!

Date:

Astronomy

Jan. 05, 2013 Rise Set
Actual Time 7:44 AM CST 5:36 PM CST
Civil Twilight 7:16 AM CST 6:04 PM CST
Nautical Twilight 6:44 AM CST 6:35 PM CST
Astronomical Twilight 6:13 AM CST 7:06 PM CST
Moon 12:59 AM CST (1/5) 12:20 PM CST (1/5)
Length of Visible Light 10h 47m
Length of Day
9h 51m
Last Quarter, 44% of the Moon is Illuminated
Jan 5
Last Quarter
Jan 11
New
Jan 18
First Quarter
Jan 26
Full
Feb 3
Last Quarter

Hourly Weather History & Observations

Time (CST) Temp. Windchill Dew Point Humidity Pressure Visibility Wind Dir Wind Speed Gust Speed Precip Events Conditions
12:15 AM 35.6 °F 27.5 °F 32.0 °F 87% 30.25 in 10.0 mi South 11.5 mph 16.1 mph N/A   Overcast
12:35 AM 35.6 °F 28.6 °F 32.0 °F 87% 30.25 in 10.0 mi SSW 9.2 mph - N/A   Overcast
12:55 AM 35.6 °F 29.9 °F 32.0 °F 87% 30.24 in 10.0 mi SSW 6.9 mph - N/A   Overcast
1:15 AM 35.6 °F 28.6 °F 32.0 °F 87% 30.24 in 10.0 mi SSW 9.2 mph - N/A   Overcast
1:35 AM 35.6 °F 29.2 °F 32.0 °F 87% 30.23 in 10.0 mi SSW 8.1 mph - N/A   Overcast
1:55 AM 35.6 °F 28.6 °F 32.0 °F 87% 30.23 in 10.0 mi SSW 9.2 mph - N/A   Overcast
2:15 AM 35.6 °F 29.2 °F 32.0 °F 87% 30.22 in 10.0 mi SSW 8.1 mph - N/A   Overcast
2:35 AM 35.6 °F 29.9 °F 32.0 °F 87% 30.22 in 10.0 mi SSW 6.9 mph - N/A   Overcast
2:55 AM 35.6 °F 29.9 °F 32.0 °F 87% 30.22 in 10.0 mi SSW 6.9 mph - N/A   Overcast
3:15 AM 35.6 °F 28.6 °F 32.0 °F 87% 30.22 in 10.0 mi SSW 9.2 mph - N/A   Overcast
3:35 AM 35.6 °F 29.2 °F 32.0 °F 87% 30.21 in 10.0 mi SSW 8.1 mph - N/A   Overcast
3:55 AM 35.6 °F 30.7 °F 32.0 °F 87% 30.21 in 10.0 mi South 5.8 mph - N/A   Overcast
4:35 AM 35.6 °F 28.6 °F 32.0 °F 87% 30.20 in 10.0 mi South 9.2 mph - N/A   Overcast
4:55 AM 35.6 °F 28.6 °F 32.0 °F 87% 30.19 in 10.0 mi SSW 9.2 mph - N/A   Overcast
5:15 AM 35.6 °F 29.9 °F 32.0 °F 87% 30.19 in 10.0 mi SSW 6.9 mph - N/A   Overcast
5:35 AM 35.6 °F 28.6 °F 32.0 °F 87% 30.18 in 10.0 mi South 9.2 mph - N/A   Overcast
6:15 AM 35.6 °F 28.6 °F 32.0 °F 87% 30.18 in 10.0 mi SSW 9.2 mph - N/A   Overcast
6:55 AM 35.6 °F 29.2 °F 32.0 °F 87% 30.19 in 10.0 mi South 8.1 mph - N/A   Overcast
7:15 AM 35.6 °F 31.7 °F 32.0 °F 87% 30.19 in 10.0 mi South 4.6 mph - N/A   Overcast
7:35 AM 35.6 °F 28.0 °F 32.0 °F 87% 30.19 in 10.0 mi SSW 10.4 mph - N/A   Overcast
8:35 AM 35.6 °F 29.2 °F 32.0 °F 87% 30.20 in 10.0 mi South 8.1 mph - N/A   Overcast
8:55 AM 35.6 °F 28.6 °F 32.0 °F 87% 30.19 in 10.0 mi South 9.2 mph - N/A   Overcast
9:15 AM 35.6 °F 28.0 °F 32.0 °F 87% 30.19 in 10.0 mi South 10.4 mph - N/A   Overcast
9:35 AM 35.6 °F 28.0 °F 32.0 °F 87% 30.19 in 10.0 mi SSW 10.4 mph - N/A   Overcast
10:15 AM 37.4 °F 29.8 °F 32.0 °F 81% 30.20 in 10.0 mi SSW 11.5 mph - N/A   Mostly Cloudy
10:35 AM 37.4 °F 28.2 °F 32.0 °F 81% 30.19 in 10.0 mi SW 16.1 mph 19.6 mph N/A   Scattered Clouds
10:55 AM 39.2 °F 32.0 °F 32.0 °F 75% 30.19 in 10.0 mi SSW 11.5 mph 20.7 mph N/A   Scattered Clouds
11:15 AM 41.0 °F 33.5 °F 32.0 °F 70% 30.19 in 10.0 mi WSW 13.8 mph 20.7 mph N/A   Scattered Clouds
11:35 AM 41.0 °F 33.1 °F 32.0 °F 70% 30.19 in 10.0 mi SW 15.0 mph 18.4 mph N/A   Scattered Clouds
11:55 AM 42.8 °F 36.2 °F 32.0 °F 66% 30.19 in 10.0 mi WSW 12.7 mph 17.3 mph N/A   Scattered Clouds
12:15 PM 42.8 °F 36.2 °F 32.0 °F 66% 30.19 in 10.0 mi SW 12.7 mph 16.1 mph N/A   Scattered Clouds
12:35 PM 42.8 °F 36.2 °F 32.0 °F 66% 30.18 in 10.0 mi SW 12.7 mph 19.6 mph N/A   Clear
12:55 PM 42.8 °F 36.2 °F 32.0 °F 66% 30.17 in 10.0 mi SW 12.7 mph 17.3 mph N/A   Clear
1:15 PM 44.6 °F 39.7 °F 32.0 °F 61% 30.15 in 10.0 mi SW 9.2 mph - N/A   Clear
1:35 PM 44.6 °F 39.2 °F 32.0 °F 61% 30.15 in 10.0 mi WSW 10.4 mph 16.1 mph N/A   Clear
1:55 PM 44.6 °F 39.7 °F 32.0 °F 61% 30.14 in 10.0 mi SW 9.2 mph - N/A   Clear
2:15 PM 46.4 °F 41.9 °F 32.0 °F 57% 30.14 in 10.0 mi SW 9.2 mph - N/A   Clear
2:35 PM 46.4 °F 41.1 °F 32.0 °F 57% 30.14 in 10.0 mi West 11.5 mph - N/A   Clear
2:55 PM 46.4 °F 41.1 °F 32.0 °F 57% 30.14 in 10.0 mi West 11.5 mph - N/A   Clear
3:15 PM 48.2 °F - 32.0 °F 54% 30.15 in 10.0 mi West 10.4 mph - N/A   Clear
3:35 PM 46.4 °F 42.9 °F 30.2 °F 53% 30.14 in 10.0 mi West 6.9 mph 16.1 mph N/A   Clear
3:55 PM 48.2 °F - 30.2 °F 50% 30.15 in 10.0 mi West 8.1 mph - N/A   Clear
4:15 PM 48.2 °F - 30.2 °F 50% 30.17 in 10.0 mi West 9.2 mph - N/A   Clear
4:55 PM 46.4 °F 41.9 °F 28.4 °F 50% 30.18 in 10.0 mi WNW 9.2 mph - N/A   Clear
5:15 PM 46.4 °F 41.5 °F 28.4 °F 50% 30.18 in 10.0 mi WNW 10.4 mph - N/A   Clear
5:35 PM 44.6 °F 40.2 °F 28.4 °F 53% 30.19 in 10.0 mi NW 8.1 mph - N/A   Clear
6:15 PM 41.0 °F 36.4 °F 26.6 °F 57% 30.20 in 10.0 mi NW 6.9 mph - N/A   Clear
6:35 PM 37.4 °F 31.4 °F 26.6 °F 65% 30.22 in 10.0 mi NW 8.1 mph - N/A   Clear
6:55 PM 37.4 °F 31.4 °F 26.6 °F 65% 30.23 in 10.0 mi NNW 8.1 mph - N/A   Clear
7:15 PM 37.4 °F 31.4 °F 26.6 °F 65% 30.24 in 10.0 mi NNW 8.1 mph - N/A   Clear
7:35 PM 35.6 °F 29.9 °F 26.6 °F 70% 30.24 in 10.0 mi NW 6.9 mph - N/A   Clear
8:15 PM 33.8 °F 26.4 °F 26.6 °F 75% 30.26 in 10.0 mi NW 9.2 mph - N/A   Clear
8:35 PM 35.6 °F 28.0 °F 26.6 °F 70% 30.26 in 10.0 mi NW 10.4 mph - N/A   Clear
9:35 PM 33.8 °F 25.3 °F 26.6 °F 75% 30.28 in 10.0 mi NNW 11.5 mph - N/A   Clear
9:55 PM 32.0 °F 23.0 °F 26.6 °F 80% 30.28 in 10.0 mi NNW 11.5 mph - N/A   Clear
10:15 PM 32.0 °F 24.8 °F 26.6 °F 80% 30.29 in 10.0 mi NNW 8.1 mph - N/A   Clear
10:35 PM 32.0 °F 24.8 °F 26.6 °F 80% 30.30 in 10.0 mi NNW 8.1 mph - N/A   Clear
10:55 PM 32.0 °F 23.6 °F 26.6 °F 80% 30.31 in 10.0 mi NNW 10.4 mph - N/A   Clear
11:15 PM 32.0 °F 24.8 °F 26.6 °F 80% 30.31 in 10.0 mi NNW 8.1 mph - N/A   Clear
11:35 PM 32.0 °F 24.8 °F 26.6 °F 80% 30.32 in 10.0 mi NNW 8.1 mph - N/A   Clear
11:55 PM 32.0 °F 24.8 °F 26.6 °F 80% 30.33 in 10.0 mi NW 8.1 mph - N/A   Clear